Location: Rounton
(54.4000°N, 1.3500°W)
Time: 08:18:39
(UTC+00:00)

Tiros 1 despin weight - Pass Details

Date: 09 December 2021
Orbit: 592 x 641 km, 48.2° (Epoch: 19 January)

Event Time Altitude Azimuth Distance (km) Brightness Sun altitude
Rises 16:41:07 0° 271° (W) 2,829 ? -8.0°
Reaches altitude 10° 16:44:14 10° 248° (WSW) 1,922 ? -8.4°
Maximum altitude 16:46:45 15° 213° (SSW) 1,612 ? -8.8°
Drops below altitude 10° 16:49:16 10° 178° (S) 1,918 ? -9.1°
Sets 16:52:22 0° 155° (SSE) 2,820 ? -9.5°
